Location: Unspecified
(0.0000°N, 0.0000°E)
Time: 16:03:33
(UTC+00:00)

deb Kosmos-1275 - Pass Details

Date: 08 March 2026
Orbit: 880 x 1009 km, 83.1° (Epoch: 18 April)

Event Time Altitude Azimuth Distance (km) Brightness Sun altitude
Exits shadow 05:03:16 24° 262° (W) 1,866 ? -16.8°
Drops below altitude 10° 05:07:44 10° 215° (SW) 2,677 ? -15.7°
Sets 05:10:41 0° 202° (SSW) 3,601 ? -15.0°
